Location: Allie Creek
(37.5926°N, 89.8526°W)
Time: 21:32:23
(UTC+00:00)

SL-16 R/B - Pass Details

Date: 30 April 2024
Orbit: 841 x 844 km, 71.0° (Epoch: 27 April)

Event Time Altitude Azimuth Distance (km) Brightness Sun altitude
Exits shadow 03:17:43 - 215° (SW) 2,684 4.7 -25.6°
Reaches altitude 10° 03:18:20 10° 217° (SW) 2,454 4.5 -25.7°
Maximum altitude 03:23:51 56° 295° (WNW) 992 2.7 -26.4°
Drops below altitude 10° 03:29:25 10° 14° (NNE) 2,466 5.0 -27.1°
Sets 03:31:56 0° 18° (NNE) 3,404 5.8 -27.5°
